COSMOS 2251 DEB, 34117

Orbit data source: Space-Track

COSMOS 2251 DEB, 34117 is space debris in LEO originally from a launch on Wed, 16 Jun 1993 UTC launched from the Plesetsk Missile And Space Complex (PKMTR). The debris from Iridium 33, an American commercial communications satellite, has been tracked extensively since its accidental collision with the defunct Russian satellite Cosmos 2251 in 2009. This event, occurring at high speed in low Earth orbit (LEO), generated thousands of pieces of space debris, significantly increasing the risk of further collisions. The Iridium 33 debris cloud has impacted space traffic management and orbital debris mitigation strategies, making it a subject of ongoing study in space situational awareness.

Loading next visibility...
Identifier
34117, 1993-036KN
Orbit
LEO
Country
Flag of CISCIS
Related business
Manufacturer
Unknown
Mission
Spacecraft
Bus & Motor
Unknown
Mass
Unknown
Launch date (UTC)
1993-06-16 (33 years ago)
Launch vehicle
Unknown
Launch site
Plesetsk Missile And Space Complex (PKMTR)
Object type
Payload
Rocket body
Debris
Shape & HBR
Unknown shape, 0.1 m
Radar Cross Section
Small (<0.1 m²)

Expand to show TLE details & history
Last TLE update: 15 hours ago

TLE from 15 hours ago
0 COSMOS 2251 DEB
1 34117U 93036KN  25352.21854795  .00001741  00000-0  55082-3 0  9991
2 34117  74.0399 333.7057 0054766  48.4745 312.1089 14.40033378882025
Epoch: 2025-12-18T05:14Z
TLE epoch observation values (Epoch: 2025-12-18T05:14:42.542Z)
Latitude
-0.00004°
Longitude
167.95123°
Altitude
734.911 km
Speed
7.501 km/s
True Right ascension
22h 14m 49s
True Declination
0° 00' 00"
Sunlit
Object was in daylight at epoch
Visualization orbit readout
Latitude
Unknown
Longitude
Unknown
Altitude
Unknown
Speed
Unknown
Apparent Right ascension
Unknown
Apparent Declination
Unknown
Sunlit
N/A
Visualization observer readout
Local Sidereal Time
19:14:38
Azimuth
Unknown
Elevation
Unknown
Doppler factor
Unknown
Orbital elements
Apogee altitude
795.078 km
Perigee altitude
716.936 km
Semi-major axis
7,134.144 km
Eccentricity
0.00548
Inclination
74.0399°
RAAN
333.7057°
Arg. of periapsis
48.4745°
True anomaly
311.64118°
Mean anomaly
312.1089°
Eccentric anomaly
311.87525°
Mean motion
3.60189 °/min
Orbital period
99.95 mins
BSTAR
0.00055082
Loading maneuver chart data...
Computing Atmospheric mass density...

Documentation

Showing up to 5 results
|